Location: Borgo
(42.3939°N, 9.2791°E)
Time: 11:14:35
(UTC+00:00)

CZ-2D R/B - Pass Details

Date: 27 February 2020
Orbit: 521 x 539 km, 97.4° (Epoch: 08 April)

Event Time Altitude Azimuth Distance (km) Brightness Sun altitude
Rises 17:35:42 0° 151° (SSE) 2,683 6.6 -5.6°
Reaches altitude 10° 17:37:52 10° 144° (SE) 1,796 5.7 -6.0°
Maximum altitude 17:41:33 43° 73° (ENE) 770 3.6 -6.7°
Drops below altitude 10° 17:45:16 10° 2° (N) 1,807 5.9 -7.4°
Sets 17:47:27 0° 355° (N) 2,702 6.9 -7.8°
